| time (UTC) | temp F | wind direction | speed knots | gust knots | rain 1hr in | rain 24hr in | rain mn in | humidity % | barometer mb |
| 20260507120414 | 85 | 293 | 4.3 | 11.3 | 0.00 | 0.00 | 0.00 | 23 | 992.7 |
| 20260507113042 | 82 | 293 | 6.1 | 13.0 | 0.00 | 0.00 | 0.00 | 29 | 993.0 |
| 20260507110042 | 83 | 315 | 8.7 | 17.4 | 0.00 | 0.00 | 0.00 | 26 | 993.1 |
| 20260507103042 | 85 | 315 | 3.5 | 8.7 | 0.00 | 0.00 | 0.00 | 27 | 993.0 |
| 20260507100042 | 85 | 315 | 3.5 | 8.7 | 0.00 | 0.00 | 0.00 | 25 | 993.1 |
| 20260507093042 | 83 | 315 | 3.5 | 8.7 | 0.00 | 0.00 | 0.00 | 27 | 993.2 |
| 20260507090041 | 84 | 293 | 2.6 | 8.7 | 0.00 | 0.00 | 0.00 | 29 | 993.5 |
| 20260507080453 | 82 | 293 | 2.6 | 7.0 | 0.00 | 0.00 | 0.00 | 34 | 993.7 |
| 20260507073414 | 79 | 270 | 1.7 | 6.1 | 0.00 | 0.00 | 0.00 | 39 | 993.8 |
| 20260507070041 | 77 | 270 | 1.7 | 6.1 | 0.00 | 0.00 | 0.00 | 41 | 993.9 |
| 20260507063041 | 75 | 270 | 1.7 | 5.2 | 0.00 | 0.00 | 0.00 | 45 | 993.9 |
| 20260507060041 | 73 | 293 | 1.7 | 5.2 | 0.00 | 0.00 | 0.00 | 47 | 993.7 |
| 20260507053041 | 71 | 293 | 1.7 | 6.1 | 0.00 | 0.00 | 0.00 | 49 | 993.6 |
| 20260507050041 | 68 | 270 | 2.6 | 7.8 | 0.00 | 0.00 | 0.00 | 50 | 993.8 |
| 20260507043041 | 66 | 293 | 5.2 | 8.7 | 0.00 | 0.00 | 0.00 | 52 | 993.4 |
| 20260507040041 | 63 | 293 | 3.5 | 7.8 | 0.00 | 0.00 | 0.00 | 56 | 993.3 |
| 20260507033041 | 60 | 203 | 0.9 | 3.5 | 0.00 | 0.00 | 0.00 | 61 | 993.2 |
| 20260507030041 | 57 | 0.0 | 1.7 | 0.00 | 0.00 | 0.00 | 67 | 993.1 | |
| 20260507023041 | 54 | 180 | 0.9 | 2.6 | 0.00 | 0.00 | 0.00 | 71 | 992.9 |
| 20260507020046 | 53 | 158 | 0.9 | 4.3 | 0.00 | 0.00 | 0.00 | 71 | 992.7 |
| 20260507013041 | 56 | 293 | 1.7 | 5.2 | 0.00 | 0.00 | 0.00 | 64 | 992.6 |
| 20260507010040 | 58 | 293 | 2.6 | 5.2 | 0.00 | 0.00 | 0.00 | 60 | 992.4 |
| 20260507003101 | 59 | 293 | 1.7 | 3.5 | 0.00 | 0.00 | 0.00 | 58 | 992.4 |
| 20260507000101 | 61 | 293 | 2.6 | 5.2 | 0.00 | 0.00 | 0.00 | 56 | 992.3 |
| 20260506233041 | 62 | 293 | 1.7 | 3.5 | 0.00 | 0.00 | 0.00 | 54 | 992.2 |
| 20260506223041 | 64 | 293 | 1.7 | 3.5 | 0.00 | 0.00 | 0.00 | 50 | 992.1 |
| 20260506220040 | 65 | 293 | 1.7 | 3.5 | 0.00 | 0.00 | 0.00 | 51 | 992.1 |
| 20260506213121 | 65 | 270 | 1.7 | 5.2 | 0.00 | 0.00 | 0.00 | 51 | 992.1 |
| 20260506210413 | 64 | 293 | 0.9 | 3.5 | 0.00 | 0.00 | 0.00 | 51 | 992.1 |
| 20260506203041 | 65 | 293 | 0.9 | 3.5 | 0.00 | 0.00 | 0.00 | 51 | 992.1 |
| 20260506200041 | 64 | 0.0 | 2.6 | 0.00 | 0.00 | 0.00 | 52 | 992.0 | |
| 20260506193041 | 63 | 0.0 | 1.7 | 0.00 | 0.00 | 0.00 | 53 | 992.0 | |
| 20260506190413 | 63 | 0.0 | 1.7 | 0.00 | 0.00 | 0.00 | 54 | 992.0 | |
| 20260506183041 | 64 | 0.0 | 1.7 | 0.00 | 0.00 | 0.00 | 54 | 992.0 | |
| 20260506180041 | 64 | 0.0 | 0.0 | 0.00 | 0.00 | 0.00 | 54 | 991.9 | |
| 20260506173101 | 66 | 0.0 | 0.0 | 0.00 | 0.00 | 0.00 | 51 | 991.7 | |
| 20260506170041 | 69 | 0.0 | 0.0 | 0.00 | 0.00 | 0.00 | 47 | 991.6 | |
| 20260506163101 | 73 | 0.0 | 0.9 | 0.00 | 0.00 | 0.00 | 42 | 991.4 | |
| 20260506160041 | 77 | 315 | 0.9 | 3.5 | 0.00 | 0.00 | 0.00 | 38 | 991.2 |
| 20260506153041 | 78 | 315 | 2.6 | 6.1 | 0.00 | 0.00 | 0.00 | 34 | 991.1 |
| 20260506143121 | 78 | 293 | 0.9 | 3.5 | 0.00 | 0.00 | 0.00 | 35 | 991.3 |
| 20260506140041 | 79 | 0 | 0.9 | 4.3 | 0.00 | 0.00 | 0.00 | 30 | 991.3 |
| 20260506133040 | 80 | 315 | 1.7 | 6.1 | 0.00 | 0.00 | 0.00 | 30 | 991.3 |
| 20260506123101 | 80 | 315 | 3.5 | 8.7 | 0.00 | 0.00 | 0.00 | 30 | 991.6 |